O'Neill, NE

11:57 AM CDT on May 26, 2018 (GMT -0500)
The O'Neill Municipal-Baker

Weather History for KONL - April, 2014

Change the Weather History Date:

Monday, April 7, 2014

  Actual Average Record
Temperature  
Mean Temperature 48 °F -  
Max Temperature 59 °F 62 °F 89 °F (1988)
Min Temperature 36 °F 33 °F 12 °F (2009)
Degree Days  
Heating Degree Days 18    
Moisture  
Dew Point 31 °F    
Average Humidity 57    
Maximum Humidity 83    
Minimum Humidity 20    
Precipitation  
Precipitation 0.00 in - - ()
Sea Level Pressure  
Sea Level Pressure 29.92 in    
Wind  
Wind Speed 11 mph (NW)    
Max Wind Speed 28 mph    
Max Gust Speed 36 mph    
Visibility 10 miles    
Events Rain    
Averages and records for this station are not official NWS values.
T = Trace of Precipitation, MM = Missing Value Source: NWS Daily Summary

Daily Weather History Graph

Daily Weather History Graph

Search for Another Location

Airport or City:

Astronomy

Apr. 07, 2014 Rise Set
Actual Time 7:06 AM CDT 8:07 PM CDT
Civil Twilight 6:38 AM CDT 8:36 PM CDT
Nautical Twilight 6:03 AM CDT 9:10 PM CDT
Astronomical Twilight 5:28 AM CDT 9:46 PM CDT
Moon 1:01 PM CDT (4/7) 2:49 AM CDT (4/7)
Length of Visible Light 13h 58m
Length of Day
13h 00m
First Quarter, 53% of the Moon is Illuminated
Apr 7
First Quarter
Apr 15
Full
Apr 22
Last Quarter
Apr 29
New
May 6
First Quarter

Hourly Weather History & Observations

Time (CDT) Temp. Windchill Dew Point Humidity Pressure Visibility Wind Dir Wind Speed Gust Speed Precip Events Conditions
12:15 AM 43.7 °F 40.3 °F 33.3 °F 67% 29.85 in 10.0 mi NNW 5.8 mph - N/A   Overcast
12:35 AM 45.5 °F - 33.8 °F 64% 29.85 in 10.0 mi Calm Calm - N/A   Overcast
12:55 AM 46.0 °F 43.1 °F 34.9 °F 65% 29.86 in 10.0 mi North 5.8 mph - N/A   Overcast
1:15 AM 49.8 °F - 35.6 °F 58% 29.85 in 10.0 mi ENE 3.5 mph - N/A Rain Light Rain
1:35 AM 45.5 °F 40.8 °F 36.5 °F 71% 29.85 in 10.0 mi SSW 9.2 mph - N/A   Overcast
1:55 AM 45.7 °F 42.7 °F 35.4 °F 67% 29.85 in 10.0 mi SSW 5.8 mph - N/A   Overcast
2:15 AM 44.8 °F 43.3 °F 34.7 °F 68% 29.84 in 10.0 mi WSW 3.5 mph - N/A   Scattered Clouds
2:35 AM 42.3 °F 39.4 °F 34.0 °F 72% 29.84 in 10.0 mi West 4.6 mph - N/A   Clear
2:55 AM 40.6 °F 35.4 °F 34.7 °F 79% 29.84 in 10.0 mi WNW 8.1 mph - N/A   Clear
3:15 AM 42.8 °F 38.0 °F 36.5 °F 78% 29.83 in 10.0 mi West 8.1 mph - N/A   Clear
3:35 AM 41.2 °F 36.0 °F 34.9 °F 78% 29.83 in 10.0 mi West 8.1 mph - N/A   Clear
3:55 AM 42.6 °F 37.8 °F 35.6 °F 76% 29.83 in 10.0 mi West 8.1 mph - N/A   Clear
4:15 AM 42.4 °F 37.0 °F 35.2 °F 76% 29.83 in 10.0 mi West 9.2 mph - N/A   Clear
4:35 AM 42.1 °F 37.1 °F 34.9 °F 76% 29.83 in 10.0 mi West 8.1 mph - N/A   Clear
4:55 AM 40.3 °F 35.5 °F 34.3 °F 79% 29.83 in 10.0 mi WNW 6.9 mph - N/A   Clear
5:15 AM 41.2 °F 35.0 °F 34.0 °F 76% 29.83 in 10.0 mi WNW 10.4 mph - N/A   Clear
5:35 AM 40.8 °F 35.0 °F 33.6 °F 76% 29.83 in 10.0 mi WNW 9.2 mph - N/A   Clear
5:55 AM 40.3 °F 34.4 °F 32.9 °F 75% 29.83 in 10.0 mi WNW 9.2 mph - N/A   Clear
6:15 AM 39.2 °F 33.6 °F 32.2 °F 76% 29.84 in 10.0 mi WNW 8.1 mph - N/A   Clear
6:35 AM 38.1 °F 32.9 °F 32.0 °F 79% 29.84 in 10.0 mi WNW 6.9 mph - N/A   Clear
7:15 AM 36.7 °F 28.9 °F 31.1 °F 80% 29.86 in 10.0 mi NW 11.5 mph - N/A   Clear
7:35 AM 36.9 °F 29.1 °F 31.1 °F 80% 29.88 in 10.0 mi NW 11.5 mph 16.1 mph N/A   Clear
7:55 AM 37.8 °F 30.2 °F 31.5 °F 78% 29.89 in 10.0 mi NNW 11.5 mph - N/A   Clear
8:15 AM 39.0 °F 31.4 °F 31.8 °F 75% 29.90 in 10.0 mi NW 12.7 mph 18.4 mph N/A   Clear
8:35 AM 41.4 °F 34.3 °F 32.0 °F 69% 29.90 in 10.0 mi NW 12.7 mph - N/A   Clear
8:55 AM 44.2 °F 37.0 °F 32.5 °F 63% 29.90 in 10.0 mi NW 16.1 mph 19.6 mph N/A   Clear
9:15 AM 45.9 °F 38.0 °F 33.6 °F 62% 29.91 in 10.0 mi NW 20.7 mph 25.3 mph N/A   Clear
9:35 AM 48.6 °F - 35.8 °F 61% 29.92 in 10.0 mi NNW 21.9 mph 29.9 mph N/A   Clear
9:55 AM 49.8 °F - 35.2 °F 57% 29.92 in 10.0 mi NNW 25.3 mph 32.2 mph N/A   Clear
10:15 AM 50.4 °F - 34.7 °F 55% 29.93 in 10.0 mi NNW 23.0 mph 28.8 mph N/A   Clear
10:55 AM 53.8 °F - 34.3 °F 48% 29.93 in 10.0 mi NW 23.0 mph 27.6 mph N/A   Clear
11:15 AM 54.3 °F - 34.3 °F 47% 29.93 in 10.0 mi NNW 20.7 mph 26.5 mph N/A   Clear
11:35 AM 56.1 °F - 33.8 °F 43% 29.93 in 10.0 mi NNW 17.3 mph 26.5 mph N/A   Clear
11:55 AM 55.4 °F - 32.4 °F 42% 29.93 in 10.0 mi NW 18.4 mph 25.3 mph N/A   Scattered Clouds
12:15 PM 55.6 °F - 33.1 °F 43% 29.93 in 10.0 mi NNW 18.4 mph 26.5 mph N/A   Overcast
12:35 PM 54.9 °F - 33.8 °F 45% 29.93 in 10.0 mi NNW 18.4 mph 21.9 mph N/A   Overcast
12:55 PM 55.9 °F - 32.4 °F 41% 29.93 in 10.0 mi North 15.0 mph 19.6 mph N/A   Mostly Cloudy
1:15 PM 56.8 °F - 30.2 °F 36% 29.93 in 10.0 mi NNW 12.7 mph 25.3 mph N/A   Scattered Clouds
1:35 PM 58.1 °F - 28.4 °F 32% 29.92 in 10.0 mi NW 18.4 mph 26.5 mph N/A   Mostly Cloudy
1:55 PM 57.6 °F - 27.0 °F 31% 29.92 in 10.0 mi NNW 21.9 mph 27.6 mph N/A   Mostly Cloudy
2:15 PM 57.0 °F - 25.2 °F 29% 29.92 in 10.0 mi NNW 19.6 mph 25.3 mph N/A   Scattered Clouds
2:35 PM 58.1 °F - 23.4 °F 26% 29.91 in 10.0 mi NNW 18.4 mph 27.6 mph N/A   Scattered Clouds
2:55 PM 59.4 °F - 21.7 °F 23% 29.91 in 10.0 mi North 18.4 mph 27.6 mph N/A   Scattered Clouds
3:15 PM 59.0 °F - 23.7 °F 26% 29.91 in 10.0 mi North 21.9 mph 26.5 mph N/A   Scattered Clouds
3:35 PM 59.4 °F - 22.1 °F 24% 29.90 in 10.0 mi North 17.3 mph 27.6 mph N/A   Scattered Clouds
3:55 PM 57.7 °F - 22.6 °F 26% 29.91 in 10.0 mi North 21.9 mph 28.8 mph N/A   Scattered Clouds
4:15 PM 59.5 °F - 17.8 °F 20% 29.91 in 10.0 mi North 20.7 mph 27.6 mph N/A   Scattered Clouds
4:35 PM 59.4 °F - 19.2 °F 21% 29.91 in 10.0 mi North 17.3 mph 26.5 mph N/A   Clear
4:55 PM 57.7 °F - 18.0 °F 21% 29.91 in 10.0 mi North 18.4 mph 25.3 mph N/A   Clear
5:15 PM 58.5 °F - 17.2 °F 20% 29.92 in 10.0 mi NW 17.3 mph 28.8 mph N/A   Clear
5:35 PM 59.9 °F - 19.8 °F 21% 29.92 in 10.0 mi North 16.1 mph 20.7 mph N/A   Mostly Cloudy
5:55 PM 53.2 °F - 28.4 °F 38% 29.94 in 10.0 mi NW 27.6 mph 35.7 mph N/A   Overcast
6:15 PM 50.0 °F - 34.2 °F 55% 29.96 in 10.0 mi NW 20.7 mph 35.7 mph N/A   Drizzle
6:35 PM 50.9 °F - 36.5 °F 58% 29.97 in 7.0 mi NNW 24.2 mph 29.9 mph N/A Rain Light Rain
6:55 PM 50.5 °F - 34.0 °F 53% 29.97 in 10.0 mi NNW 18.4 mph 23.0 mph N/A   Overcast
7:15 PM 49.1 °F - 33.8 °F 56% 29.98 in 10.0 mi North 9.2 mph - N/A   Mostly Cloudy
7:35 PM 48.2 °F - 33.3 °F 56% 29.98 in 10.0 mi North 6.9 mph - N/A   Mostly Cloudy
7:55 PM 47.3 °F - 32.5 °F 57% 29.99 in 10.0 mi NW 9.2 mph - N/A   Scattered Clouds
8:15 PM 46.9 °F - 32.0 °F 56% 30.00 in 10.0 mi NW 13.8 mph - N/A   Mostly Cloudy
8:35 PM 45.9 °F 38.3 °F 32.4 °F 59% 30.01 in 10.0 mi NW 19.6 mph 26.5 mph N/A   Overcast
8:55 PM 44.6 °F 37.8 °F 32.0 °F 61% 30.01 in 10.0 mi NNW 15.0 mph - N/A   Mostly Cloudy
9:15 PM 44.6 °F 38.1 °F 32.4 °F 62% 30.03 in 10.0 mi NNW 13.8 mph - N/A   Mostly Cloudy
9:35 PM 43.3 °F 37.2 °F 33.1 °F 67% 30.03 in 10.0 mi NNW 11.5 mph 18.4 mph N/A   Scattered Clouds
9:55 PM 40.6 °F 35.4 °F 32.7 °F 73% 30.03 in 10.0 mi NW 8.1 mph - N/A   Clear
10:15 PM 40.1 °F 34.1 °F 32.9 °F 75% 30.03 in 10.0 mi NW 9.2 mph - N/A   Clear
10:35 PM 40.1 °F 33.6 °F 32.9 °F 75% 30.04 in 10.0 mi NW 10.4 mph - N/A   Clear
10:55 PM 39.2 °F 33.6 °F 32.0 °F 75% 30.03 in 10.0 mi WNW 8.1 mph - N/A   Clear
11:15 PM 38.1 °F 31.7 °F 31.8 °F 78% 30.03 in 10.0 mi West 9.2 mph - N/A   Clear
11:35 PM 36.3 °F 30.8 °F 31.3 °F 82% 30.03 in 10.0 mi West 6.9 mph - N/A   Clear
11:55 PM 36.3 °F 29.5 °F 31.6 °F 83% 30.03 in 10.0 mi WNW 9.2 mph - N/A   Clear